GW5877 Weather Reports


time (UTC)temp
F
wind
direction
speed
knots
gust
knots
rain 1hr
in
rain 24hr
in
rain mn
in
humidity
%
barometer
mb
20260906203846 100 151 0.9 1.7 0.00 0.00 0.00 34 1016.0
20260906203341 100 219 4.3 5.2 0.00 0.00 0.00 34 1016.2
20260906202838 101 216 2.6 2.6 0.00 0.00 0.00 33 1016.1
20260906202337 102 162 0.0 0.0 0.00 0.00 0.00 32 1016.2
20260906201837 101 128 0.9 0.9 0.00 0.00 0.00 33 1016.3
20260906201332 101 208 1.7 2.6 0.00 0.00 0.00 35 1016.4
20260906200827 102 279 0.0 0.9 0.00 0.00 0.00 33 1016.3
20260906200323 102 161 1.7 1.7 0.00 0.00 0.00 33 1016.4
20260906195818 102 113 1.7 1.7 0.00 0.00 0.00 34 1016.6
20260906195315 102 227 0.0 0.0 0.00 0.00 0.00 33 1016.6
20260906194810 101 164 0.9 0.9 0.00 0.00 0.00 34 1016.9
20260906194306 100 153 2.6 2.6 0.00 0.00 0.00 35 1016.9
20260906193800 100 168 0.0 0.0 0.00 0.00 0.00 35 1016.7
20260906193255 100 228 0.0 0.0 0.00 0.00 0.00 35 1016.7
20260906192752 100 200 1.7 1.7 0.00 0.00 0.00 35 1016.8
20260906192251 100 254 1.7 1.7 0.00 0.00 0.00 35 1017.1
20260906191751 99 354 0.9 1.7 0.00 0.00 0.00 36 1017.1
20260906191246 100 214 0.0 0.0 0.00 0.00 0.00 37 1017.1
20260906190745 100 274 1.7 2.6 0.00 0.00 0.00 39 1017.3
20260906190240 100 147 1.7 2.6 0.00 0.00 0.00 37 1017.3
20260906185739 99 124 1.7 1.7 0.00 0.00 0.00 37 1017.5
20260906185238 98 37 0.0 0.9 0.00 0.00 0.00 38 1017.5
20260906184733 99 195 0.9 1.7 0.00 0.00 0.00 38 1017.6
20260906184228 100 99 1.7 1.7 0.00 0.00 0.00 37 1017.5
20260906183724 100 54 1.7 2.6 0.00 0.00 0.00 37 1017.7
20260906183220 100 36 0.9 0.9 0.00 0.00 0.00 37 1017.6
20260906182720 100 192 2.6 3.5 0.00 0.00 0.00 37 1017.8
20260906182216 99 248 0.9 0.9 0.00 0.00 0.00 37 1017.8
20260906181711 99 231 0.0 0.9 0.00 0.00 0.00 38 1017.9
20260906181208 100 212 0.9 0.9 0.00 0.00 0.00 37 1018.0
20260906180707 100 117 0.9 0.9 0.00 0.00 0.00 36 1018.0
20260906180202 98 119 1.7 2.6 0.00 0.00 0.00 38 1018.1
20260906175700 99 247 0.9 1.7 0.00 0.00 0.00 40 1018.4
20260906175156 99 37 1.7 2.6 0.00 0.00 0.00 38 1018.5
20260906174654 101 163 0.9 0.9 0.00 0.00 0.00 37 1018.5
20260906174149 100 151 1.7 1.7 0.00 0.00 0.00 37 1018.6
20260906173644 101 175 0.0 0.0 0.00 0.00 0.00 37 1018.8
20260906173140 99 115 2.6 3.5 0.00 0.00 0.00 38 1018.8
20260906172639 96 275 0.0 0.0 0.00 0.00 0.00 41 1019.0
20260906172135 97 235 0.0 0.0 0.00 0.00 0.00 42 1019.0
20260906171634 98 112 1.7 1.7 0.00 0.00 0.00 40 1019.1
20260906171130 96 260 0.9 1.7 0.00 0.00 0.00 41 1019.2
20260906170626 96 243 0.9 0.9 0.00 0.00 0.00 42 1019.2
20260906170125 95 231 0.0 0.0 0.00 0.00 0.00 43 1019.3
20260906165621 96 220 0.0 0.0 0.00 0.00 0.00 43 1019.5
20260906165117 96 228 0.9 0.9 0.00 0.00 0.00 42 1019.4
20260906164615 96 238 0.0 0.0 0.00 0.00 0.00 43 1019.5
20260906164111 97 237 0.0 0.0 0.00 0.00 0.00 42 1019.5
20260906163607 95 16 0.0 0.9 0.00 0.00 0.00 42 1019.4
20260906163103 95 235 0.9 1.7 0.00 0.00 0.00 43 1019.6
20260906162600 95 237 1.7 1.7 0.00 0.00 0.00 44 1019.4
20260906162055 95 260 1.7 2.6 0.00 0.00 0.00 43 1019.5
20260906161550 95 226 0.0 0.0 0.00 0.00 0.00 43 1019.5
20260906161048 94 231 0.0 0.0 0.00 0.00 0.00 46 1019.6
20260906160547 95 246 1.7 1.7 0.00 0.00 0.00 44 1019.4
20260906160046 95 318 0.0 0.0 0.00 0.00 0.00 45 1019.4
20260906155543 93 181 0.0 0.0 0.00 0.00 0.00 46 1019.3
20260906155040 94 231 0.0 0.0 0.00 0.00 0.00 47 1019.4
20260906154535 93 234 0.0 0.0 0.00 0.00 0.00 47 1019.5
20260906154034 94 209 0.9 1.7 0.00 0.00 0.00 48 1019.4
20260906153533 93 203 0.0 0.9 0.00 0.00 0.00 48 1019.3
20260906153029 92 217 0.0 0.9 0.00 0.00 0.00 50 1019.2
20260906152528 93 233 0.0 0.9 0.00 0.00 0.00 48 1019.4
20260906152027 91 229 0.0 0.0 0.00 0.00 0.00 52 1019.3
20260906151523 91 231 0.0 0.0 0.00 0.00 0.00 50 1019.4
20260906151024 91 221 0.0 0.0 0.00 0.00 0.00 51 1019.3
20260906150519 90 226 0.0 0.0 0.00 0.00 0.00 52 1019.1
20260906150014 89 228 0.0 0.0 0.00 0.00 0.00 52 1019.3
20260906145513 89 215 0.0 0.0 0.00 0.00 0.00 53 1019.1
20260906145008 90 259 1.7 2.6 0.00 0.00 0.00 51 1019.2
20260906144502 89 232 0.0 0.0 0.00 0.00 0.00 53 1019.2
20260906143957 89 235 0.0 0.0 0.00 0.00 0.00 54 1019.4
20260906143453 89 218 0.0 0.9 0.00 0.00 0.00 53 1019.2
20260906142949 89 232 0.0 0.0 0.00 0.00 0.00 53 1019.1
20260906142448 89 207 0.0 0.0 0.00 0.00 0.00 54 1019.3
20260906141944 89 232 0.0 0.0 0.00 0.00 0.00 53 1019.2
20260906141443 88 230 0.0 0.0 0.00 0.00 0.00 55 1019.1
20260906140938 88 229 0.0 0.9 0.00 0.00 0.00 55 1019.1
20260906140432 87 215 0.0 0.0 0.00 0.00 0.00 56 1019.0
20260906135930 87 235 0.9 0.9 0.00 0.00 0.00 56 1019.0
20260906135429 86 160 0.0 0.9 0.00 0.00 0.00 56 1018.9
20260906134925 85 237 0.0 0.0 0.00 0.00 0.00 59 1018.9
20260906134420 85 284 0.0 0.0 0.00 0.00 0.00 58 1018.9
20260906133915 84 240 0.0 0.0 0.00 0.00 0.00 59 1018.9
20260906133411 83 248 0.0 0.0 0.00 0.00 0.00 60 1018.7
20260906132906 82 225 0.0 0.0 0.00 0.00 0.00 60 1018.8
20260906132402 82 224 0.0 0.0 0.00 0.00 0.00 62 1018.9
20260906131857 82 232 0.0 0.0 0.00 0.00 0.00 62 1018.6
20260906131352 81 235 0.0 0.0 0.00 0.00 0.00 63 1018.6
20260906130848 80 228 0.0 0.0 0.00 0.00 0.00 65 1018.7
20260906130348 80 226 0.0 0.0 0.00 0.00 0.00 65 1018.6
20260906125847 80 223 0.0 0.0 0.00 0.00 0.00 65 1018.6
20260906125344 80 221 0.0 0.0 0.00 0.00 0.00 66 1018.7
20260906124839 80 226 0.0 0.0 0.00 0.00 0.00 66 1018.6
20260906124335 79 210 0.0 0.0 0.00 0.00 0.00 65 1018.5
20260906123834 79 221 0.0 0.0 0.00 0.00 0.00 66 1018.4
20260906123329 79 222 0.0 0.0 0.00 0.00 0.00 66 1018.5
20260906122829 79 219 0.0 0.0 0.00 0.00 0.00 66 1018.1
20260906122324 79 224 0.0 0.0 0.00 0.00 0.00 66 1018.5
20260906121821 79 224 0.0 0.0 0.00 0.00 0.00 66 1018.1
20260906121316 79 221 0.0 0.0 0.00 0.00 0.00 65 1018.1
20260906120812 79 214 0.0 0.0 0.00 0.00 0.00 66 1018.0
20260906120309 79 227 0.0 0.0 0.00 0.00 0.00 66 1017.9
20260906115805 79 226 0.0 0.0 0.00 0.00 0.00 65 1018.0
20260906115259 79 214 0.0 0.0 0.00 0.00 0.00 65 1017.8
20260906114759 79 224 0.0 0.0 0.00 0.00 0.00 65 1017.8
20260906114254 79 202 0.0 0.0 0.00 0.00 0.00 66 1017.7
20260906113749 79 225 0.0 0.0 0.00 0.00 0.00 66 1017.7
20260906113248 79 224 0.0 0.0 0.00 0.00 0.00 66 1017.8
20260906112749 79 217 0.0 0.0 0.00 0.00 0.00 66 1017.8
20260906112245 79 210 0.0 0.0 0.00 0.00 0.00 66 1017.6
20260906111744 79 219 0.0 0.0 0.00 0.00 0.00 65 1017.4
20260906111239 79 224 0.0 0.0 0.00 0.00 0.00 65 1017.5
20260906110734 79 222 0.0 0.0 0.00 0.00 0.00 65 1017.6
20260906110230 79 216 0.0 0.0 0.00 0.00 0.00 66 1017.4
20260906105728 79 212 0.0 0.0 0.00 0.00 0.00 66 1017.5
20260906105225 79 225 0.0 0.0 0.00 0.00 0.00 65 1017.6
20260906104725 79 221 0.0 0.0 0.00 0.00 0.00 65 1017.4
20260906104224 79 222 0.0 0.0 0.00 0.00 0.00 65 1017.3
20260906103721 79 227 0.0 0.0 0.00 0.00 0.00 65 1017.3
20260906103216 80 225 0.0 0.0 0.00 0.00 0.00 64 1017.3
20260906102712 80 226 0.0 0.0 0.00 0.00 0.00 64 1017.4
20260906102212 80 213 0.0 0.0 0.00 0.00 0.00 64 1017.2
20260906101712 80 224 0.0 0.0 0.00 0.00 0.00 64 1017.1
20260906101207 80 218 0.0 0.0 0.00 0.00 0.00 64 1017.0
20260906100702 80 230 0.0 0.0 0.00 0.00 0.00 63 1017.2
20260906100202 80 227 0.0 0.0 0.00 0.00 0.00 63 1017.2
20260906095657 80 215 0.0 0.0 0.00 0.00 0.00 63 1017.2
20260906095152 80 221 0.0 0.0 0.00 0.00 0.00 63 1017.1
20260906094651 81 224 0.0 0.0 0.00 0.00 0.00 62 1017.0
20260906094147 80 220 0.0 0.0 0.00 0.00 0.00 62 1017.2
20260906093643 80 227 0.0 0.0 0.00 0.00 0.00 62 1017.1
20260906093143 80 216 0.0 0.0 0.00 0.00 0.00 63 1017.0
20260906092638 80 224 0.0 0.0 0.00 0.00 0.00 63 1017.2
20260906092133 81 215 0.0 0.0 0.00 0.00 0.00 63 1017.1
20260906091629 81 225 0.0 0.0 0.00 0.00 0.00 62 1017.3
20260906091125 81 199 0.0 0.0 0.00 0.00 0.00 63 1017.2
20260906090620 81 224 0.0 0.0 0.00 0.00 0.00 61 1017.1
20260906090120 81 224 0.0 0.0 0.00 0.00 0.00 61 1017.1
20260906085619 81 222 0.0 0.0 0.00 0.00 0.00 61 1016.9
20260906085114 81 217 0.0 0.0 0.00 0.00 0.00 60 1017.0
20260906084609 82 223 0.0 0.0 0.00 0.00 0.00 60 1017.1
20260906084108 82 222 0.0 0.0 0.00 0.00 0.00 60 1017.1
20260906083604 82 222 0.0 0.0 0.00 0.00 0.00 59 1017.0
20260906083103 82 220 0.0 0.0 0.00 0.00 0.00 59 1017.0
20260906082558 82 218 0.0 0.0 0.00 0.00 0.00 58 1016.9
20260906082053 82 218 0.0 0.0 0.00 0.00 0.00 59 1017.0
20260906081549 82 221 0.0 0.0 0.00 0.00 0.00 59 1016.9
20260906081039 82 224 0.0 0.0 0.00 0.00 0.00 58 1016.9
20260906080536 82 227 0.0 0.0 0.00 0.00 0.00 59 1016.8
20260906080031 82 224 0.0 0.0 0.00 0.00 0.00 59 1016.8
20260906075526 82 219 0.0 0.0 0.00 0.00 0.00 59 1016.8
20260906075020 82 215 0.0 0.0 0.00 0.00 0.00 59 1016.8
20260906074515 82 220 0.0 0.0 0.00 0.00 0.00 59 1017.0
20260906074013 82 220 0.0 0.0 0.00 0.00 0.00 59 1016.8
20260906073509 82 221 0.0 0.0 0.00 0.00 0.00 59 1016.9
20260906073005 82 223 0.0 0.0 0.00 0.00 0.00 58 1017.1
20260906072459 82 223 0.0 0.0 0.00 0.00 0.00 59 1017.1
20260906071955 83 218 0.0 0.0 0.00 0.00 0.00 59 1017.0
20260906071451 83 213 0.0 0.0 0.00 0.00 0.00 58 1017.0
20260906070946 83 225 0.0 0.0 0.00 0.00 0.00 58 1017.1
20260906070442 83 225 0.0 0.0 0.00 0.00 0.00 57 1017.1
20260906065938 83 225 0.0 0.0 0.00 0.00 0.00 56 1017.1
20260906065432 83 225 0.0 0.0 0.00 0.00 0.00 56 1016.9
20260906064928 84 224 0.0 0.0 0.00 0.00 0.00 56 1017.0
20260906064424 84 226 0.0 0.0 0.00 0.00 0.00 55 1017.1
20260906063924 84 226 0.0 0.0 0.00 0.00 0.00 55 1016.9
20260906063419 84 220 0.0 0.0 0.00 0.00 0.00 55 1017.0
20260906062915 84 216 0.0 0.0 0.00 0.00 0.00 54 1016.8
20260906062414 84 229 0.0 0.0 0.00 0.00 0.00 54 1017.0
20260906061909 84 221 0.0 0.0 0.00 0.00 0.00 54 1017.0
20260906061406 85 222 0.0 0.0 0.00 0.00 0.00 54 1017.1
20260906060859 85 222 0.0 0.0 0.00 0.00 0.00 54 1017.1
20260906060357 85 207 0.0 0.0 0.00 0.00 0.00 53 1017.1
20260906055853 85 205 0.0 0.0 0.00 0.00 0.00 53 1017.0
20260906055349 84 196 0.0 0.0 0.00 0.00 0.00 54 1017.0
20260906054844 85 202 0.0 0.0 0.00 0.00 0.00 53 1017.0
20260906054338 85 214 0.0 0.0 0.00 0.00 0.00 53 1016.9
20260906053835 85 215 0.0 0.0 0.00 0.00 0.00 53 1017.1
20260906053330 85 213 0.0 0.0 0.00 0.00 0.00 53 1017.0
20260906052826 85 223 0.0 0.0 0.00 0.00 0.00 53 1016.9
20260906052322 85 223 0.0 0.0 0.00 0.00 0.00 53 1016.8
20260906051819 85 221 0.0 0.0 0.00 0.00 0.00 53 1016.7
20260906051318 85 214 0.0 0.0 0.00 0.00 0.00 54 1016.8
20260906050814 85 215 0.0 0.0 0.00 0.00 0.00 54 1016.7
20260906050309 85 224 0.0 0.0 0.00 0.00 0.00 54 1016.6
20260906045808 85 226 0.0 0.0 0.00 0.00 0.00 53 1016.8
20260906045305 85 224 0.0 0.0 0.00 0.00 0.00 53 1016.7
20260906044759 86 224 0.0 0.0 0.00 0.00 0.00 53 1016.6
20260906044253 86 224 0.0 0.0 0.00 0.00 0.00 53 1016.8
20260906043749 86 224 0.0 0.0 0.00 0.00 0.00 53 1016.6
20260906043245 86 225 0.0 0.0 0.00 0.00 0.00 53 1016.6
20260906042744 86 225 0.0 0.0 0.00 0.00 0.00 52 1016.7
20260906042244 86 217 0.0 0.0 0.00 0.00 0.00 52 1016.6
20260906041739 86 226 0.0 0.0 0.00 0.00 0.00 51 1016.8
20260906041234 87 226 0.0 0.0 0.00 0.00 0.00 51 1016.8
20260906040730 87 226 0.0 0.0 0.00 0.00 0.00 50 1016.9
20260906040225 87 226 0.0 0.0 0.00 0.00 0.00 50 1016.7
20260906035720 87 226 0.0 0.0 0.00 0.00 0.00 50 1016.8
20260906035216 88 225 0.0 0.0 0.00 0.00 0.00 49 1016.9
20260906034716 88 226 0.0 0.0 0.00 0.00 0.00 48 1016.8
20260906034211 88 226 0.0 0.0 0.00 0.00 0.00 48 1016.7
20260906033706 88 223 0.0 0.0 0.00 0.00 0.00 48 1016.9
20260906033201 89 220 0.0 0.0 0.00 0.00 0.00 48 1016.7
20260906032658 89 221 0.0 0.0 0.00 0.00 0.00 48 1016.6
20260906032158 89 219 0.0 0.0 0.00 0.00 0.00 47 1016.6
20260906031653 90 219 0.0 0.0 0.00 0.00 0.00 47 1016.6
20260906031148 90 216 0.0 0.0 0.00 0.00 0.00 46 1016.7
20260906030648 90 219 0.0 0.0 0.00 0.00 0.00 46 1016.6
20260906030143 90 217 0.0 0.0 0.00 0.00 0.00 45 1016.6
20260906025642 91 221 0.0 0.0 0.00 0.00 0.00 45 1016.6
20260906025142 90 220 0.0 0.0 0.00 0.00 0.00 45 1016.7
20260906024636 91 216 0.0 0.0 0.00 0.00 0.00 45 1016.5
20260906024130 91 215 0.0 0.0 0.00 0.00 0.00 45 1016.5
20260906023627 90 202 0.0 0.0 0.00 0.00 0.00 45 1016.5
20260906023126 90 211 0.0 0.0 0.00 0.00 0.00 46 1016.4
20260906022622 91 204 0.0 0.0 0.00 0.00 0.00 45 1016.2
20260906022117 90 210 0.0 0.0 0.00 0.00 0.00 46 1016.2
20260906021613 91 219 0.0 0.0 0.00 0.00 0.00 46 1016.3
20260906021111 91 224 0.0 0.0 0.00 0.00 0.00 46 1016.1
20260906020611 91 221 0.0 0.0 0.00 0.00 0.00 45 1016.0
20260906020106 91 206 0.0 0.0 0.00 0.00 0.00 44 1015.9
20260906015605 91 212 0.0 0.0 0.00 0.00 0.00 45 1016.1
20260906015105 91 225 0.0 0.0 0.00 0.00 0.00 45 1016.1
20260906014559 92 225 0.0 0.0 0.00 0.00 0.00 45 1016.1
20260906014056 92 225 0.0 0.0 0.00 0.00 0.00 43 1015.7
20260906013551 93 227 0.0 0.0 0.00 0.00 0.00 43 1015.9
20260906013046 93 208 0.0 0.0 0.00 0.00 0.00 42 1015.5
20260906012541 93 222 0.0 0.0 0.00 0.00 0.00 41 1015.6
20260906012041 94 206 0.9 0.9 0.00 0.00 0.00 41 1015.6
20260906011537 94 189 0.0 0.0 0.00 0.00 0.00 40 1015.7
20260906011036 94 219 0.0 0.0 0.00 0.00 0.00 40 1015.6
20260906010532 95 209 0.9 0.9 0.00 0.00 0.00 39 1015.5
20260906010028 95 209 0.9 0.9 0.00 0.00 0.00 39 1015.5
20260906005527 95 115 0.9 1.7 0.00 0.00 0.00 38 1015.6
20260906005026 96 144 0.9 1.7 0.00 0.00 0.00 38 1015.5
20260906004526 96 232 0.0 0.0 0.00 0.00 0.00 38 1015.3
20260906004022 96 75 0.0 0.9 0.00 0.00 0.00 37 1015.4
20260906003517 97 117 1.7 2.6 0.00 0.00 0.00 37 1015.5
20260906003013 97 119 0.9 1.7 0.00 0.00 0.00 36 1015.4
20260906002513 97 163 1.7 2.6 0.00 0.00 0.00 36 1015.1
20260906002007 97 86 1.7 3.5 0.00 0.00 0.00 36 1015.3
20260906001503 98 146 1.7 1.7 0.00 0.00 0.00 36 1015.1
20260906000957 98 145 0.9 0.9 0.00 0.00 0.00 35 1015.1
20260906000455 98 103 3.5 5.2 0.00 0.00 0.00 35 1015.0
20260905235948 98 152 3.5 3.5 0.00 0.00 0.00 35 1015.0
20260905235447 99 131 0.9 0.9 0.00 0.00 0.00 35 1015.0
20260905234942 99 227 1.7 2.6 0.00 0.00 0.00 35 1015.1
20260905234433 99 66 1.7 1.7 0.00 0.00 0.00 35 1014.8
20260905233932 99 163 0.0 0.0 0.00 0.00 0.00 35 1014.9
20260905233428 99 95 1.7 2.6 0.00 0.00 0.00 34 1014.8
20260905232926 99 168 0.0 0.9 0.00 0.00 0.00 35 1014.8
20260905232423 99 175 1.7 1.7 0.00 0.00 0.00 35 1014.7
20260905231918 100 131 0.9 0.9 0.00 0.00 0.00 35 1014.8
20260905231414 100 83 1.7 1.7 0.00 0.00 0.00 34 1014.9
20260905230910 100 154 0.9 0.9 0.00 0.00 0.00 34 1014.9
20260905230409 100 148 0.9 0.9 0.00 0.00 0.00 34 1014.8
20260905225907 100 239 0.9 0.9 0.00 0.00 0.00 34 1014.8
20260905225402 100 137 1.7 1.7 0.00 0.00 0.00 34 1014.6
20260905224857 100 96 1.7 1.7 0.00 0.00 0.00 34 1014.9
20260905224354 100 197 0.0 0.0 0.00 0.00 0.00 34 1014.8
20260905223853 101 142 1.7 1.7 0.00 0.00 0.00 33 1014.7
20260905223352 101 67 0.9 0.9 0.00 0.00 0.00 34 1014.7
20260905222851 102 185 0.0 0.9 0.00 0.00 0.00 33 1014.8
20260905222350 102 185 1.7 2.6 0.00 0.00 0.00 33 1014.6
20260905221846 102 245 1.7 1.7 0.00 0.00 0.00 32 1014.8
20260905221343 100 240 1.7 1.7 0.00 0.00 0.00 34 1014.8
20260905220838 100 138 1.7 1.7 0.00 0.00 0.00 33 1014.8
20260905220335 101 91 1.7 2.6 0.00 0.00 0.00 33 1014.8
20260905215834 101 264 0.9 0.9 0.00 0.00 0.00 33 1014.9
20260905215330 101 208 0.0 0.9 0.00 0.00 0.00 33 1014.9
20260905214826 101 167 0.0 0.9 0.00 0.00 0.00 34 1014.9
20260905214321 101 202 0.9 0.9 0.00 0.00 0.00 34 1015.1
20260905213816 100 184 1.7 2.6 0.00 0.00 0.00 33 1015.3
20260905213312 100 235 0.0 0.9 0.00 0.00 0.00 33 1015.4
20260905212812 100 227 0.0 0.0 0.00 0.00 0.00 34 1015.3
20260905212313 100 142 0.9 1.7 0.00 0.00 0.00 34 1015.5
20260905211813 100 123 2.6 3.5 0.00 0.00 0.00 33 1015.5
20260905211308 99 214 0.9 0.9 0.00 0.00 0.00 34 1015.5
20260905210804 100 163 1.7 2.6 0.00 0.00 0.00 34 1015.6
20260905210304 100 149 0.9 1.7 0.00 0.00 0.00 35 1015.7
20260905205803 101 210 0.9 1.7 0.00 0.00 0.00 34 1015.9
20260905205257 100 168 1.7 2.6 0.00 0.00 0.00 34 1015.8
20260905204756 100 99 1.7 2.6 0.00 0.00 0.00 35 1015.8
20260905204253 100 85 1.7 2.6 0.00 0.00 0.00 34 1015.9